TimeEST,TemperatureF,Dew PointF,Humidity,Sea Level PressureIn,VisibilityMPH,Wind Direction,Wind SpeedMPH,Gust SpeedMPH,PrecipitationIn,Events,Conditions,WindDirDegrees,DateUTC
12:55 AM,21.2,6.8,54,-9999,70.0,South,21.9,-,N/A,,Overcast,180,2013-02-27 05:55:00
1:47 AM,21.2,6.8,54,-9999,70.0,SSE,23.0,-,N/A,,Mostly Cloudy,160,2013-02-27 06:47:00
2:55 AM,17.6,14.0,86,-9999,65.0,SSE,23.0,-,N/A,,Overcast,160,2013-02-27 07:55:00
3:51 AM,17.6,14.0,86,-9999,75.0,SSE,26.5,-,N/A,Snow,Low Drifting Snow,160,2013-02-27 08:51:00
4:50 AM,14.0,14.0,100,-9999,0.1,SSE,26.5,32.2,N/A,Fog-Snow,Light Freezing Fog,160,2013-02-27 09:50:00
5:55 AM,17.6,17.6,100,-9999,0.0,SSE,18.4,24.2,N/A,Fog-Snow,Light Freezing Fog,160,2013-02-27 10:55:00
6:52 AM,17.6,17.6,100,-9999,0.1,SE,38.0,43.7,N/A,Fog-Snow,Light Snow,140,2013-02-27 11:52:00
7:51 AM,14.0,14.0,100,-9999,0.1,SE,42.6,-,N/A,Fog-Snow,Light Snow,140,2013-02-27 12:51:00
8:55 AM,14.0,14.0,100,-9999,0.0,SE,50.6,-,N/A,Fog-Snow,Light Snow,140,2013-02-27 13:55:00
9:53 AM,14.0,14.0,100,-9999,0.0,SE,52.9,-,N/A,Fog-Snow,Light Snow,130,2013-02-27 14:53:00
10:54 AM,14.0,14.0,100,-9999,0.0,SE,56.4,-,N/A,Fog-Snow,Snow,130,2013-02-27 15:54:00
11:59 AM,14.0,14.0,100,-9999,0.0,SE,61.0,67.9,N/A,Fog-Snow,Snow,130,2013-02-27 16:59:00
12:49 PM,14.0,14.0,100,-9999,0.0,ESE,64.4,69.0,N/A,Fog-Snow,Snow,120,2013-02-27 17:49:00
1:54 PM,14.0,14.0,100,-9999,0.0,ESE,63.3,73.6,N/A,Fog-Snow,Snow,120,2013-02-27 18:54:00
2:53 PM,14.0,14.0,100,-9999,0.0,ESE,67.9,78.3,N/A,Fog-Snow,Snow,120,2013-02-27 19:53:00
3:54 PM,15.8,15.8,100,-9999,0.0,ESE,66.7,79.4,N/A,Fog-Snow,Snow,120,2013-02-27 20:54:00
4:55 PM,14.0,14.0,100,-9999,0.0,ESE,61.0,77.1,N/A,Fog-Snow,Snow,110,2013-02-27 21:55:00
5:58 PM,10.4,10.4,100,-9999,0.1,ESE,66.7,73.6,N/A,Fog-Snow,Light Snow,110,2013-02-27 22:58:00
6:52 PM,12.2,12.2,100,-9999,0.0,ESE,64.4,85.2,N/A,Fog-Snow,Snow,120,2013-02-27 23:52:00
7:49 PM,12.2,12.2,100,-9999,0.0,ESE,74.8,81.7,N/A,Fog-Snow,Light Snow,110,2013-02-28 00:49:00
8:53 PM,15.8,15.8,100,-9999,0.0,ESE,64.4,82.9,N/A,Fog-Snow,Snow,120,2013-02-28 01:53:00
9:55 PM,15.8,15.8,100,-9999,0.0,ESE,64.4,81.7,N/A,Fog-Snow,Light Snow,120,2013-02-28 02:55:00
10:59 PM,15.8,15.8,100,-9999,0.0,ESE,59.8,73.6,N/A,Fog-Snow,Light Snow,120,2013-02-28 03:59:00
11:58 PM,14.0,14.0,100,-9999,0.0,ESE,54.1,69.0,N/A,Fog-Snow,Light Snow,110,2013-02-28 04:58:00